PRAETORIAN SDA_602

Last updated on Thu Aug 20 2026 00:03:39 GMT+0000 (Coordinated Universal Time)

1 65565U 25203A 26231.50048680 .00000030 00000+0 16425-4 0 9998 2 65565 81.3050 312.1647 0006447 35.0414 325.1166 13.83890996 47458
UTC large
Height (km)
Speed (km/s)
/
Latitude / Longitude
Inclination (degrees)
Orbital Period (minutes)
Azimuth
Elevation
Range (km)
Doppler Factor

Next 0 passes for location: London (51.5072 / 0.1276)

No passes found over London.
PRAETORIAN SDA_602